WA9UKW Weather Reports


Display with metric or nautical units.
time (UTC)temp
F
wind
direction
speed
MPH
gust
MPH
rain 1hr
in
rain 24hr
in
rain mn
in
humidity
%
barometer
mb
20220525034642 64 87 0.0 0.0 0.00 0.00 0.00 41 1013.8
20220525034135 65 87 0.0 0.0 0.00 0.00 0.00 39 1013.8
20220525033631 65 87 0.0 0.0 0.00 0.00 0.00 39 1013.4
20220525033123 65 87 0.0 0.0 0.00 0.00 0.00 39 1013.4
20220525032613 66 87 0.0 0.0 0.00 0.00 0.00 39 1013.4
20220525032111 66 87 0.0 0.0 0.00 0.00 0.00 36 1013.4
20220525031608 66 87 0.0 0.0 0.00 0.00 0.00 35 1013.6
20220525031100 67 87 0.0 0.0 0.00 0.00 0.00 35 1013.4
20220525030556 67 87 0.0 1.0 0.00 0.00 0.00 34 1013.4
20220525030042 67 87 0.0 3.0 0.00 0.00 0.00 34 1013.6
20220525025542 67 87 0.0 5.0 0.00 0.00 0.00 33 1013.6
20220525025036 67 30 0.0 5.0 0.00 0.00 0.00 33 1013.4
20220525024530 67 81 1.0 3.0 0.00 0.00 0.00 34 1013.4
20220525024023 67 79 1.0 6.0 0.00 0.00 0.00 31 1013.4
20220525023518 67 5 1.0 5.0 0.00 0.00 0.00 31 1013.4
20220525023011 67 355 1.0 4.0 0.00 0.00 0.00 32 1013.6
20220525022500 67 82 1.0 4.0 0.00 0.00 0.00 30 1013.4
20220525021959 67 25 2.0 5.0 0.00 0.00 0.00 29 1013.4
20220525021456 68 338 2.0 5.0 0.00 0.00 0.00 29 1013.4
20220525020950 68 331 2.0 6.0 0.00 0.00 0.00 29 1013.4
20220525020450 68 350 2.0 6.0 0.00 0.00 0.00 29 1013.6
20220525015949 68 8 2.0 7.0 0.00 0.00 0.00 30 1013.6
20220525015450 68 17 3.0 7.0 0.00 0.00 0.00 29 1013.8
20220525014949 68 307 3.0 9.0 0.00 0.00 0.00 29 1013.8
20220525014451 68 8 2.0 9.0 0.00 0.00 0.00 29 1014.0
20220525013950 68 343 3.0 8.0 0.00 0.00 0.00 28 1014.1
20220525013450 68 351 3.0 8.0 0.00 0.00 0.00 27 1013.9
20220525012950 68 18 3.0 8.0 0.00 0.00 0.00 28 1014.0
20220525012452 69 338 2.0 7.0 0.00 0.00 0.00 28 1014.0
20220525011948 69 346 2.0 7.0 0.00 0.00 0.00 31 1014.0
20220525011448 69 15 4.0 9.0 0.00 0.00 0.00 29 1014.1
20220525010948 69 356 3.0 9.0 0.00 0.00 0.00 29 1014.2
20220525010448 69 308 3.0 9.0 0.00 0.00 0.00 29 1014.3
20220525005948 69 348 4.0 8.0 0.00 0.00 0.00 29 1014.2
20220525005445 69 30 4.0 8.0 0.00 0.00 0.00 31 1014.3
20220525004939 69 335 3.0 8.0 0.00 0.00 0.00 30 1014.3
20220525004434 70 356 2.0 6.0 0.00 0.00 0.00 30 1014.3
20220525003928 70 337 3.0 10.0 0.00 0.00 0.00 29 1014.5
20220525003419 70 314 4.0 10.0 0.00 0.00 0.00 29 1014.5
20220525002916 70 341 3.0 10.0 0.00 0.00 0.00 30 1014.6
20220525002411 70 6 4.0 13.0 0.00 0.00 0.00 29 1014.5
20220525001903 70 25 3.0 13.0 0.00 0.00 0.00 29 1014.6
20220525001359 70 331 2.0 7.0 0.00 0.00 0.00 29 1014.7
20220525000851 70 281 2.0 7.0 0.00 0.00 0.00 30 1014.7
20220525000350 70 358 4.0 11.0 0.00 0.00 0.00 30 1015.0
20220524235850 70 325 4.0 11.0 0.00 0.00 0.00 30 1015.0
20220524235352 70 339 4.0 11.0 0.00 0.00 0.00 29 1015.0
20220524234850 70 252 4.0 11.0 0.00 0.00 0.00 29 1015.0
20220524234351 70 327 4.0 12.0 0.00 0.00 0.00 29 1015.1
20220524233851 70 343 4.0 12.0 0.00 0.00 0.00 29 1015.1
20220524233351 70 330 3.0 11.0 0.00 0.00 0.00 31 1015.0
20220524232852 70 249 4.0 12.0 0.00 0.00 0.00 31 1015.1
20220524232351 70 19 5.0 12.0 0.00 0.00 0.00 30 1015.1
20220524231849 70 331 4.0 11.0 0.00 0.00 0.00 28 1015.1
20220524231348 70 325 4.0 11.0 0.00 0.00 0.00 27 1015.1
20220524230845 70 2 4.0 9.0 0.00 0.00 0.00 29 1015.2
20220524230346 69 28 3.0 10.0 0.00 0.00 0.00 28 1015.0
20220524225848 69 337 4.0 12.0 0.00 0.00 0.00 29 1015.1
20220524225344 69 246 5.0 13.0 0.00 0.00 0.00 28 1015.1
20220524224836 69 267 6.0 16.0 0.00 0.00 0.00 28 1015.1
20220524224330 70 17 6.0 16.0 0.00 0.00 0.00 27 1015.2
20220524223821 70 329 6.0 14.0 0.00 0.00 0.00 27 1015.3
20220524223310 70 348 5.0 14.0 0.00 0.00 0.00 28 1015.2
20220524222805 70 335 3.0 13.0 0.00 0.00 0.00 30 1015.2
20220524222258 70 4 2.0 9.0 0.00 0.00 0.00 29 1015.3
20220524221748 70 192 3.0 9.0 0.00 0.00 0.00 29 1015.2
20220524221241 70 320 3.0 10.0 0.00 0.00 0.00 31 1015.3
20220524220731 70 350 4.0 11.0 0.00 0.00 0.00 30 1015.4
20220524220221 70 346 3.0 13.0 0.00 0.00 0.00 30 1015.4
20220524215716 70 332 3.0 13.0 0.00 0.00 0.00 31 1015.5
20220524215214 70 335 3.0 10.0 0.00 0.00 0.00 31 1015.4
20220524214714 70 322 3.0 10.0 0.00 0.00 0.00 31 1015.4
20220524214215 70 353 4.0 9.0 0.00 0.00 0.00 31 1015.3
20220524213716 70 231 3.0 10.0 0.00 0.00 0.00 34 1015.3
20220524213213 70 267 2.0 10.0 0.00 0.00 0.00 34 1015.2
20220524212710 69 206 1.0 8.0 0.00 0.00 0.00 31 1015.2
20220524212210 69 331 2.0 9.0 0.00 0.00 0.00 32 1015.2
20220524211710 69 310 2.0 9.0 0.00 0.00 0.00 31 1015.4
20220524211210 69 3 2.0 8.0 0.00 0.00 0.00 33 1015.4
20220524210706 69 99 5.0 11.0 0.00 0.00 0.00 32 1015.5
20220524210159 69 52 7.0 16.0 0.00 0.00 0.00 31 1015.7
20220524205700 69 325 6.0 16.0 0.00 0.00 0.00 31 1015.7
20220524205158 69 310 3.0 11.0 0.00 0.00 0.00 34 1015.7
20220524204657 69 199 3.0 11.0 0.00 0.00 0.00 37 1015.9
20220524204159 69 321 4.0 11.0 0.00 0.00 0.00 33 1015.9
20220524203656 69 1 3.0 10.0 0.00 0.00 0.00 34 1016.0
20220524203156 69 262 3.0 10.0 0.00 0.00 0.00 35 1016.2
20220524202658 69 322 3.0 8.0 0.00 0.00 0.00 36 1016.2
20220524202158 69 293 4.0 11.0 0.00 0.00 0.00 36 1016.2
20220524201651 69 302 4.0 11.0 0.00 0.00 0.00 32 1016.2
20220524201140 68 277 4.0 10.0 0.00 0.00 0.00 37 1016.2
20220524200641 69 304 4.0 10.0 0.00 0.00 0.00 37 1016.2
20220524200141 68 356 4.0 11.0 0.00 0.00 0.00 37 1016.2
20220524195640 68 17 5.0 11.0 0.00 0.00 0.00 36 1016.2
20220524195140 68 300 4.0 11.0 0.00 0.00 0.00 37 1016.2
20220524194640 68 14 4.0 15.0 0.00 0.00 0.00 36 1016.3
20220524194140 68 352 3.0 15.0 0.00 0.00 0.00 36 1016.3
20220524193641 69 330 2.0 7.0 0.00 0.00 0.00 39 1016.3
20220524193142 68 287 2.0 8.0 0.00 0.00 0.00 39 1016.3
20220524192635 68 214 3.0 9.0 0.00 0.00 0.00 38 1016.3
20220524192124 67 25 2.0 9.0 0.00 0.00 0.00 39 1016.3
20220524191623 68 340 5.0 13.0 0.00 0.00 0.00 39 1016.3
20220524191124 67 277 5.0 13.0 0.00 0.00 0.00 39 1016.3
20220524190624 67 354 4.0 9.0 0.00 0.00 0.00 41 1016.5
20220524190124 68 339 3.0 10.0 0.00 0.00 0.00 40 1016.5
20220524185623 68 323 2.0 10.0 0.00 0.00 0.00 41 1016.5
20220524185124 67 337 2.0 8.0 0.00 0.00 0.00 44 1016.5
20220524184626 67 186 3.0 10.0 0.00 0.00 0.00 43 1016.5
20220524184125 67 327 4.0 11.0 0.00 0.00 0.00 42 1016.6
20220524183620 68 17 3.0 11.0 0.00 0.00 0.00 41 1016.6
20220524183108 67 131 3.0 9.0 0.00 0.00 0.00 44 1016.6
20220524182556 67 272 4.0 9.0 0.00 0.00 0.00 44 1016.8
20220524182043 66 296 3.0 9.0 0.00 0.00 0.00 44 1016.9
20220524181531 66 284 3.0 10.0 0.00 0.00 0.00 44 1016.9
20220524181019 66 323 2.0 10.0 0.00 0.00 0.00 46 1016.8
20220524180519 66 345 2.0 9.0 0.00 0.00 0.00 47 1016.9
20220524180021 66 21 3.0 9.0 0.00 0.00 0.00 47 1016.8
20220524175519 65 302 3.0 11.0 0.00 0.00 0.00 47 1016.9
20220524175020 65 348 4.0 11.0 0.00 0.00 0.00 47 1016.8
20220524174520 65 315 5.0 15.0 0.00 0.00 0.00 46 1016.9
20220524174020 65 337 3.0 15.0 0.00 0.00 0.00 45 1016.8
20220524173522 65 354 3.0 8.0 0.00 0.00 0.00 51 1016.8
20220524173021 64 335 5.0 11.0 0.00 0.00 0.00 48 1016.8
20220524172515 64 341 4.0 11.0 0.00 0.00 0.00 47 1016.8
20220524172004 64 73 2.0 6.0 0.00 0.00 0.00 48 1016.8
20220524171504 64 328 3.0 8.0 0.00 0.00 0.00 50 1016.8
20220524171004 64 327 4.0 10.0 0.00 0.00 0.00 50 1016.8
20220524170505 64 7 2.0 10.0 0.00 0.00 0.00 51 1016.8
20220524170006 63 327 3.0 9.0 0.00 0.00 0.00 50 1016.8
20220524165503 63 336 3.0 9.0 0.00 0.00 0.00 50 1016.9
20220524165004 62 339 3.0 11.0 0.00 0.00 0.00 51 1016.9
20220524164505 63 25 3.0 11.0 0.00 0.00 0.00 50 1017.1
20220524164006 62 344 2.0 9.0 0.00 0.00 0.00 53 1017.1
20220524163500 62 6 2.0 8.0 0.00 0.00 0.00 52 1017.2
20220524162948 61 323 2.0 7.0 0.00 0.00 0.00 53 1017.1
20220524162448 61 252 2.0 5.0 0.00 0.00 0.00 53 1017.0
20220524161948 60 337 2.0 7.0 0.00 0.00 0.00 53 1017.1
20220524161448 60 333 3.0 7.0 0.00 0.00 0.00 54 1017.2
20220524160947 59 333 3.0 8.0 0.00 0.00 0.00 55 1017.2
20220524160447 59 337 3.0 8.0 0.00 0.00 0.00 55 1017.1
20220524155947 58 331 3.0 8.0 0.00 0.00 0.00 56 1017.1
20220524155450 58 331 2.0 7.0 0.00 0.00 0.00 56 1017.1
20220524154949 58 335 2.0 6.0 0.00 0.00 0.00 58 1017.2
20220524154443 57 304 2.0 5.0 0.00 0.00 0.00 61 1017.1
20220524153932 56 321 3.0 9.0 0.00 0.00 0.00 60 1017.3
20220524153431 55 325 3.0 9.0 0.00 0.00 0.00 62 1017.3
20220524152933 54 328 3.0 8.0 0.00 0.00 0.00 63 1017.2
20220524152433 54 331 3.0 8.0 0.00 0.00 0.00 63 1017.1
20220524151932 54 324 2.0 8.0 0.00 0.00 0.00 64 1017.2
20220524151432 53 310 2.0 7.0 0.00 0.00 0.00 65 1017.2
20220524150932 53 337 3.0 8.0 0.00 0.00 0.00 66 1017.3
20220524150434 52 324 3.0 8.0 0.00 0.00 0.00 66 1017.3
20220524145934 52 333 2.0 7.0 0.00 0.00 0.00 67 1017.3
20220524145428 51 281 2.0 6.0 0.00 0.00 0.00 68 1017.2
20220524144915 51 307 2.0 8.0 0.00 0.00 0.00 69 1017.2
20220524144403 50 300 3.0 8.0 0.00 0.00 0.00 69 1017.1
20220524143856 50 300 2.0 8.0 0.00 0.00 0.00 70 1017.0
20220524143340 49 315 1.0 5.0 0.00 0.00 0.00 71 1016.9
20220524142828 49 329 1.0 4.0 0.00 0.00 0.00 73 1017.0
20220524142329 49 316 1.0 2.0 0.00 0.00 0.00 73 1016.9
20220524141828 48 308 2.0 6.0 0.00 0.00 0.00 74 1017.0
20220524141328 47 285 2.0 6.0 0.00 0.00 0.00 75 1016.9
20220524140829 47 4 2.0 5.0 0.00 0.00 0.00 77 1017.1
20220524140328 46 302 3.0 7.0 0.00 0.00 0.00 78 1017.0
20220524135837 46 330 3.0 7.0 0.00 0.00 0.00 79 1016.9
20220524135329 45 325 3.0 6.0 0.00 0.00 0.00 81 1017.0
20220524134834 44 0 3.0 6.0 0.00 0.00 0.00 83 1016.9
20220524134323 44 359 1.0 5.0 0.00 0.00 0.00 84 1016.7
20220524133811 44 4 0.0 2.0 0.00 0.00 0.00 85 1016.6
20220524133300 44 4 0.0 2.0 0.00 0.00 0.00 84 1016.6
20220524132748 43 104 0.0 1.0 0.00 0.00 0.00 84 1016.6
20220524132235 43 107 0.0 1.0 0.00 0.00 0.00 84 1016.6
20220524131723 43 107 0.0 0.0 0.00 0.00 0.00 83 1016.6
20220524131224 43 107 0.0 0.0 0.00 0.00 0.00 83 1016.6
20220524130724 43 107 0.0 0.0 0.00 0.00 0.00 82 1016.5
20220524130225 43 107 0.0 0.0 0.00 0.00 0.00 82 1016.5
20220524125724 43 107 0.0 1.0 0.00 0.00 0.00 81 1016.5
20220524125225 43 107 0.0 1.0 0.00 0.00 0.00 81 1016.3
20220524124724 43 107 0.0 2.0 0.00 0.00 0.00 81 1016.3
20220524124225 43 107 0.0 2.0 0.00 0.00 0.00 81 1016.3
20220524123726 43 107 0.0 1.0 0.00 0.00 0.00 80 1016.2
20220524123219 43 107 0.0 0.0 0.00 0.00 0.00 80 1016.3
20220524122709 44 107 0.0 0.0 0.00 0.00 0.00 79 1016.3
20220524122208 44 107 0.0 0.0 0.00 0.00 0.00 79 1016.3
20220524121708 44 107 0.0 0.0 0.00 0.00 0.00 78 1016.2
20220524121208 44 107 0.0 0.0 0.00 0.00 0.00 78 1016.0
20220524120708 44 107 0.0 0.0 0.00 0.00 0.00 78 1015.9
20220524120209 44 107 0.0 0.0 0.00 0.00 0.00 78 1015.8
20220524115708 44 107 0.0 0.0 0.00 0.00 0.00 78 1015.9
20220524115209 45 107 0.0 1.0 0.00 0.00 0.00 78 1016.0
20220524114709 45 107 0.0 2.0 0.00 0.00 0.00 77 1016.0
20220524114203 45 107 0.0 2.0 0.00 0.00 0.00 77 1016.2
20220524113651 45 107 0.0 1.0 0.00 0.00 0.00 76 1016.0
20220524113140 45 107 0.0 0.0 0.00 0.00 0.00 75 1016.2
20220524112628 45 107 0.0 0.0 0.00 0.00 0.00 74 1016.0
20220524112115 46 107 0.0 0.0 0.00 0.00 0.00 74 1016.0
20220524111604 46 107 0.0 0.0 0.00 0.00 0.00 73 1016.0
20220524111104 46 106 0.0 0.0 0.00 0.00 0.00 73 1015.8
20220524110604 46 106 0.0 0.0 0.00 0.00 0.00 73 1015.7
20220524110103 46 106 0.0 0.0 0.00 0.00 0.00 72 1015.7
20220524105604 47 106 0.0 0.0 0.00 0.00 0.00 72 1015.9
20220524105104 47 106 0.0 0.0 0.00 0.00 0.00 72 1015.8
20220524104603 47 106 0.0 1.0 0.00 0.00 0.00 72 1015.6
20220524104106 47 106 0.0 1.0 0.00 0.00 0.00 71 1015.6
20220524103605 47 106 0.0 1.0 0.00 0.00 0.00 71 1015.6
20220524103100 47 106 0.0 0.0 0.00 0.00 0.00 71 1015.6
20220524102548 48 106 0.0 0.0 0.00 0.00 0.00 71 1015.6
20220524102035 48 106 0.0 0.0 0.00 0.00 0.00 70 1015.5
20220524101524 48 106 0.0 0.0 0.00 0.00 0.00 70 1015.6
20220524101011 48 106 0.0 0.0 0.00 0.00 0.00 70 1015.5
20220524100500 48 106 0.0 0.0 0.00 0.00 0.00 70 1015.5
20220524100000 48 106 0.0 0.0 0.00 0.00 0.00 70 1015.5
20220524095501 48 106 0.0 0.0 0.00 0.00 0.00 70 1015.5
20220524095000 48 106 0.0 0.0 0.00 0.00 0.00 71 1015.5
20220524094505 48 106 0.0 0.0 0.00 0.00 0.00 70 1015.6
20220524094001 48 106 0.0 0.0 0.00 0.00 0.00 70 1015.5
20220524093500 48 106 0.0 0.0 0.00 0.00 0.00 70 1015.5
20220524093001 48 106 0.0 0.0 0.00 0.00 0.00 70 1015.4
20220524092501 48 106 0.0 0.0 0.00 0.00 0.00 70 1015.4
20220524091956 48 106 0.0 1.0 0.00 0.00 0.00 70 1015.2
20220524091444 48 106 0.0 1.0 0.00 0.00 0.00 70 1015.2
20220524090944 47 106 0.0 1.0 0.00 0.00 0.00 71 1015.2
20220524090444 47 106 0.0 2.0 0.00 0.00 0.00 71 1015.2
20220524085943 47 106 0.0 2.0 0.00 0.00 0.00 71 1015.1
20220524085443 47 108 0.0 2.0 0.00 0.00 0.00 72 1015.0
20220524084944 47 110 0.0 1.0 0.00 0.00 0.00 72 1015.0
20220524084444 47 110 0.0 1.0 0.00 0.00 0.00 72 1014.9
20220524083943 47 110 0.0 1.0 0.00 0.00 0.00 72 1014.9
20220524083443 47 110 0.0 0.0 0.00 0.00 0.00 72 1014.7
20220524082938 47 110 0.0 0.0 0.00 0.00 0.00 71 1014.7
20220524082426 47 110 0.0 1.0 0.00 0.00 0.00 71 1014.9
20220524081913 47 110 0.0 1.0 0.00 0.00 0.00 71 1014.9
20220524081403 47 110 0.0 1.0 0.00 0.00 0.00 71 1014.9
20220524080851 47 110 0.0 1.0 0.00 0.00 0.00 71 1015.0
20220524080337 47 110 0.0 2.0 0.00 0.00 0.00 71 1015.0
20220524075828 47 110 0.0 2.0 0.00 0.00 0.00 71 1015.1
20220524075319 47 105 0.0 1.0 0.00 0.00 0.00 71 1015.2
20220524074808 47 111 0.0 1.0 0.00 0.00 0.00 70 1015.2
20220524074258 47 117 0.0 1.0 0.00 0.00 0.00 69 1015.1
20220524073753 47 122 0.0 1.0 0.00 0.00 0.00 68 1015.1
20220524073241 47 122 0.0 1.0 0.00 0.00 0.00 68 1015.0
20220524072740 48 122 0.0 1.0 0.00 0.00 0.00 68 1014.9
20220524072230 48 122 0.0 1.0 0.00 0.00 0.00 67 1015.0
20220524071720 48 122 0.0 2.0 0.00 0.00 0.00 66 1015.0
20220524071212 48 122 0.0 2.0 0.00 0.00 0.00 66 1015.0
20220524070709 48 109 0.0 1.0 0.00 0.00 0.00 65 1015.0
20220524070159 49 109 0.0 0.0 0.00 0.00 0.00 65 1015.0
20220524065700 49 109 0.0 0.0 0.00 0.00 0.00 64 1015.0
20220524065142 49 109 0.0 0.0 0.00 0.00 0.00 64 1014.9
20220524064635 49 109 0.0 1.0 0.00 0.00 0.00 64 1015.0
20220524064128 49 109 0.0 1.0 0.00 0.00 0.00 63 1015.0
20220524063620 50 109 0.0 0.0 0.00 0.00 0.00 63 1015.1
20220524063111 50 109 0.0 1.0 0.00 0.00 0.00 62 1015.1
20220524062605 50 109 0.0 1.0 0.00 0.00 0.00 62 1015.1
20220524062054 50 109 0.0 2.0 0.00 0.00 0.00 62 1015.1
20220524061550 51 109 1.0 2.0 0.00 0.00 0.00 62 1015.1
20220524061043 51 102 0.0 1.0 0.00 0.00 0.00 61 1015.1
20220524060534 51 102 0.0 0.0 0.00 0.00 0.00 60 1015.1
20220524060030 51 102 0.0 1.0 0.00 0.00 0.00 60 1015.0
20220524055524 51 102 0.0 1.0 0.00 0.00 0.00 59 1015.0
20220524055016 52 102 0.0 1.0 0.00 0.00 0.00 58 1015.0
20220524054512 52 102 0.0 1.0 0.00 0.00 0.00 58 1014.7
20220524054004 52 102 0.0 1.0 0.00 0.00 0.00 57 1014.7
20220524053501 53 102 0.0 1.0 0.00 0.00 0.00 56 1014.7
20220524052957 53 102 0.0 0.0 0.00 0.00 0.00 56 1014.6
20220524052447 53 102 0.0 1.0 0.00 0.00 0.00 55 1014.6
20220524051946 53 102 0.0 1.0 0.00 0.00 0.00 55 1014.6
20220524051431 54 102 0.0 0.0 0.00 0.00 0.00 54 1014.6
20220524050935 54 102 0.0 2.0 0.00 0.00 0.00 53 1014.7
20220524050424 54 102 1.0 2.0 0.00 0.00 0.00 52 1014.6
20220524045919 55 102 0.0 2.0 0.00 0.00 0.00 53 1014.7
20220524045411 55 25 0.0 0.0 0.00 0.00 0.00 52 1014.7
20220524044901 55 25 0.0 0.0 0.00 0.00 0.00 51 1014.7
20220524044400 56 25 0.0 0.0 0.00 0.00 0.00 50 1014.7
20220524043853 56 25 0.0 0.0 0.00 0.00 0.00 49 1014.6
20220524043348 56 25 0.0 0.0 0.00 0.00 0.00 48 1014.7
20220524042843 57 25 0.0 2.0 0.00 0.00 0.00 49 1014.7
20220524042336 57 25 0.0 2.0 0.00 0.00 0.00 48 1014.6
20220524041830 58 55 0.0 1.0 0.00 0.00 0.00 46 1014.6
20220524041319 58 55 0.0 0.0 0.00 0.00 0.00 45 1014.6
20220524040818 58 55 0.0 0.0 0.00 0.00 0.00 44 1014.6
20220524040312 59 55 0.0 0.0 0.00 0.00 0.00 43 1014.6
20220524035808 59 55 0.0 1.0 0.00 0.00 0.00 43 1014.5
20220524035300 60 55 0.0 2.0 0.00 0.00 0.00 42 1014.6